Volver al catálogo

COSMOS 1452

ActivoNavegaciónLEO
NORAD 13991·PAYLOAD·🇷🇺 Russia

Lanzado Apr 12, 1983 desde Plesetsk Cosmodrome

Loading…

Próximos Pases (próximas 24 horas)

TLE

ActualizadoSource: Space-Track

Época: Sep 14, 2026, 09:05 UTC

1 13991U 83031A   26257.37861637  .00000077  00000-0  36964-4 0  9997
2 13991  74.0486  39.5219 0016208 343.2353  37.9573 14.34014664269401

Sigue COSMOS 1452 en tiempo real con AllMySat

Download on the App Store